Home   Weather   Nuuk   Past weeks

Flag for Greenland Past Weather in Nuuk, Greenland — Yesterday and Last 2 Weeks

Now
36 °F

Partly sunny.


Feels Like: 32 °F
Forecast: 35 / 41 °F
Wind: 5 mph from Northeast

Location: Godthaab / Nuuk

Current Time: Sep 25, 2016 at 10:27:31 AM

Latest Report: Sep 25, 2016 at 9:50 AM


Visibility: N/A

Pressure: 29.83 "Hg

Humidity: 93%

Dew Point: 34 °F

Location of NuukLocation

Past Weather in Nuuk — Graph

°F

Nuuk Temperature Yesterday

Maximum temperature yesterday: 43 °F (at 12:50 PM)
Minimum temperature yesterday: 30 °F (at 2:50 AM)
Average temperature yesterday: 37 °F

High & Low Weather Summary for the Past Weeks

 TemperatureHumidityPressure
High54 °F (Sep 14, 2:50 PM)100% (Sep 14, 9:50 PM)30.04 "Hg (Sep 14, 9:50 PM)
Low30 °F (Sep 24, 2:50 AM)25% (Sep 21, 3:50 PM)29.18 "Hg (Sep 17, 7:50 PM)
Average39 °F65%29.66 "Hg
* Reported Sep 10 8:50 AM — Sep 25 8:50 AM, Nuuk, Weather by CustomWeather, © 2016

Note: Actual official high and low records may vary slightly from our data, if they occured in-between our weather recording intervals... More about our weather records

Advertising

Nuuk Weather History for the Previous 24 Hours

Scroll right to see more
 ConditionsComfort  
Time TempWeatherWind HumidityBarometerVisibility
8:50 AM
Sun, Sep 25
36 °FPartly sunny.5 mph93%29.86 "HgN/A
7:50 AM36 °FPartly sunny.6 mph93%29.86 "HgN/A
6:50 AM37 °FOvercast.7 mph87%29.86 "HgN/A
5:50 AM36 °FOvercast.5 mph93%29.86 "HgN/A
4:50 AM36 °FOvercast.6 mph93%29.86 "HgN/A
3:50 AM37 °FOvercast.2 mph81%29.86 "HgN/A
2:50 AM36 °FOvercast.7 mph93%29.89 "HgN/A
1:50 AM37 °FPassing clouds.6 mph87%29.89 "HgN/A
12:50 AM37 °FOvercast.7 mph87%29.89 "HgN/A
11:50 PM
Sat, Sep 24
37 °FOvercast.6 mph93%29.92 "HgN/A
10:50 PM37 °FPassing clouds.6 mph87%29.92 "HgN/A
9:50 PM37 °FOvercast.No wind93%29.92 "HgN/A
8:50 PM39 °FOvercast.5 mph87%29.92 "HgN/A
7:50 PM37 °FOvercast.2 mph87%29.92 "HgN/A
6:50 PM39 °FBroken clouds.No wind87%29.92 "HgN/A
5:50 PM41 °FBroken clouds.3 mph66%29.92 "HgN/A
4:50 PM39 °FBroken clouds.5 mph87%29.92 "HgN/A
3:50 PM39 °FBroken clouds.6 mph87%29.92 "HgN/A
2:50 PM41 °FBroken clouds.8 mph76%29.92 "HgN/A
1:50 PM41 °FBroken clouds.8 mph66%29.89 "HgN/A
12:50 PM43 °FPartly sunny.1 mph61%29.89 "HgN/A
11:50 AM39 °FPartly sunny.3 mph75%29.89 "HgN/A
10:50 AM41 °FBroken clouds.5 mph61%29.89 "HgN/A
Weather by CustomWeather, © 2016

See weather overviewHow to use our weather pages